Regional Weather Roundup
Issued by NWS

Home | Current Version | Previous Version | Graphics & Text | Print | Product List | Glossary Off
Versions: 1 2 3 4 5 6 7 8 9 10 11 12 13 14 15 16 17 18 19 20 21 22 23 24 25 26 27 28 29 30 31 32 33 34 35 36 37 38 39 40 41 42 43 44 45 46 47 48 49 50

000
ASUS43 KDMX 232006
RWRIA

WEATHER ROUNDUP FOR IOWA
NATIONAL WEATHER SERVICE DES MOINES IA
300 PM CDT SAT SEP 23 2017

NOTE: "FAIR" INDICATES FEW OR NO CLOUDS BELOW 12,000 FEET WITH NO
SIGNIFICANT WEATHER AND/OR OBSTRUCTIONS TO VISIBILITY.

* - THESE STATIONS ARE NOT NWS STATIONS...THUS NOT UNDER NWS
QUALITY CONTROL.  THEY ALSO DO NOT REPORT WEATHER SUCH
AS PRECIPITATION OR FOG.

IAZ001>003-012>014-020>022-031>034-043>046-232100-
   NORTHWEST IOWA

CITY           SKY/WX    TMP DP  RH WIND       PRES   REMARKS
CARROLL *      SUNNY     91  66  43 S17G23    29.94F HX  94
CHEROKEE *     MOSUNNY   87  69  54 S14G21    29.92S HX  91
DENISON *      MOSUNNY   88  66  48 S16G22    29.94F HX  90
LE MARS *      PTSUNNY   86  70  58 S16G22    29.89F HX  90
ORANGE CITY *  MOSUNNY   86  72  62 S10       29.91F HX  92
SHELDON *      MOSUNNY   86  68  54 S14       29.91S HX  89
SIOUX CITY     MOSUNNY   88  70  55 S13G24    29.88F HX  93
SPENCER        PTSUNNY   88  67  49 S17       29.93F HX  91
STORM LAKE *   SUNNY     86  66  51 S15G22    29.94F HX  88
$$

IAZ055>058-069>071-079>083-090>094-232100-
   SOUTHWEST IOWA

CITY           SKY/WX    TMP DP  RH WIND       PRES   REMARKS
ATLANTIC *     SUNNY     90  64  43 S13G21    29.94F HX  91
AUDUBON *      SUNNY     88  66  48 S12       29.97F HX  90
CLARINDA *     SUNNY     91  63  38 S13G21    29.96F HX  92
COUNCIL BLFS * MOSUNNY   90  68  48 S16G24    29.92F HX  93
CRESTON *      MOSUNNY   90  63  40 S18       29.99F HX  90
HARLAN  *      MOSUNNY   90  66  45 S16G24    29.96F HX  92
LAMONI         MOSUNNY   90  65  43 S13       29.99F HX  92
RED OAK *      MOSUNNY   90  64  43 S14G26    29.94F HX  91
SHENANDOAH *   MOSUNNY   91  64  40 S16       29.93F HX  93
$$

IAZ047>049-059>061-072>074-084-232100-
   CENTRAL IOWA

CITY           SKY/WX    TMP DP  RH WIND       PRES   REMARKS
AMES           MOSUNNY   90  65  43 S18G25    29.97F HX  92
ANKENY *       SUNNY     90  66  45 S13G18    29.97F HX  92
BOONE *        PTSUNNY   91  63  38 S16G24    29.96F HX  92
CHARITON *     SUNNY     90  66  45 S15       29.99F HX  92
DES MOINES     MOSUNNY   92  64  39 S13       29.96F HX  93
GRINNELL*      SUNNY     89  63  40 S9        30.01F HX  90
KNOXVILLE *    MOSUNNY   91  64  40 S12G17    29.98F HX  93
MARSHALLTOWN   SUNNY     91  63  39 S14G22    29.97F HX  92
NEWTON *       SUNNY     91  64  40 S15       29.99F HX  93
PELLA *        SUNNY     92  62  35 S10G16    30.00F HX  92
PERRY *        PTSUNNY   92  58  31 S13       29.96F HX  90
$$

IAZ004>006-015-016-023>025-035-036-232100-
   NORTH CENTRAL IOWA

CITY           SKY/WX    TMP DP  RH WIND       PRES   REMARKS
ALGONA *       MOSUNNY   88  68  51 S13G23    29.95S HX  91
CLARION *      SUNNY     91  64  40 S18       29.96F HX  93
ESTHERVILLE    MOSUNNY   86  68  54 S12       29.93F HX  89
FORT DODGE *   SUNNY     89  65  44 S15G21    29.96F HX  91
MASON CITY     MOSUNNY   89  64  43 S15G24    29.98F HX  90
FOREST CITY *  PTSUNNY   88  64  45 S15G21    29.97F HX  89
WEBSTER CITY * MOSUNNY   91  64  40 S15G22    29.95F HX  93
IOWA FALLS *     N/A     91  64  40 S15       29.99F HX  92
$$

IAZ007>011-017>019-026>030-037>042-050>054-066-232100-
   NORTHEAST IOWA

CITY           SKY/WX    TMP DP  RH WIND       PRES   REMARKS
CEDAR RAPIDS   MOSUNNY   93  61  34 SW12G17   30.00F HX  93
CHARLES CITY * MOSUNNY   90  63  40 S12G24    29.99F HX  90
CLINTON *      SUNNY    N/A N/A N/A SE8       30.03F
DECORAH *      MOSUNNY   90  64  43 S9G18     30.00F HX  91
DUBUQUE        SUNNY     88  64  44 S9G17     30.05F HX  89
MONTICELLO *   MOSUNNY   91  63  38 S6        30.01F HX  92
OELWEIN *      MOSUNNY   91  63  38 S10G18    30.01F HX  92
WATERLOO       MOSUNNY   90  60  36 S17       29.98F HX  89
$$

IAZ064-065-067-068-078-232100-
   EAST CENTRAL IOWA

CITY           SKY/WX    TMP DP  RH WIND       PRES   REMARKS
DAVENPORT      SUNNY     92  62  36 CALM      30.04F HX  92
IOWA CITY      SUNNY     94  62  34 SW9       30.01F HX  94
MT. PLEASANT * SUNNY     94  57  29 SE10      30.00F HX  92
MUSCATINE *    SUNNY     93  61  33 S8G15     30.01F HX  93
QUAD CITIES    SUNNY     93  63  36 S6        30.01F HX  94
$$

IAZ062-063-075>077-085>089-095>099-232100-
   SOUTHEAST IOWA

CITY           SKY/WX    TMP DP  RH WIND       PRES   REMARKS
BURLINGTON     SUNNY     92  63  38 S6        30.01F HX  93
FAIRFIELD *    SUNNY     91  61  35 SE9       30.00F HX  91
FORT MADISON * MOSUNNY   95  63  34 E7        30.02F HX  96
KEOKUK *       MOSUNNY   93  59  31 SE9       30.00F HX  92
OSKALOOSA *      N/A     92  64  39 S7        30.00F HX  94
CENTERVILLE *    N/A     86  66  51 CALM      30.02F HX  88
OTTUMWA        SUNNY     91  64  40 S12       29.99F HX  92
WASHINGTON *   MOSUNNY   93  64  38 S8G14     30.01F HX  95
$$

ABBREVIATIONS USED IN REMARKS
   TC - TEMPERATURES IN CELSIUS
  WCI - WIND CHILL INDEX
   HX - HEAT INDEX
  VSB - VISIBILITY
$$





USA.gov is the U.S. government's official web portal to all federal, state and local government web resources and services.